Back to catalog

IRIDIUM 73

AliveCommunicationsPO
NORAD 25344·PAYLOAD·🇺🇸 United States

Launched May 17, 1998 from Vandenberg Space Force Base

Loading…

Next Passes (next 24 hours)

TLE

FreshSource: Space-Track

Epoch: Sep 14, 2026, 14:44 UTC

1 25344U 98032C   26257.61432670  .00000358  00000-0  82967-4 0  9993
2 25344  86.4432 213.7068 0001727  88.6282 271.5122 14.52273858496504

Track IRIDIUM 73 in real time with AllMySat

Download on the App Store